Seward, AK

8:23 PM AKDT on April 25, 2018 (GMT -0800)
Seward

Weather History for PAWD - November, 2014

Change the Weather History Date:

Friday, November 7, 2014

  Actual Average Record
Temperature  
Mean Temperature 42 °F -  
Max Temperature 44 °F 38 °F 58 °F (1979)
Min Temperature 39 °F 28 °F 8 °F (1956)
Degree Days  
Heating Degree Days 24    
Moisture  
Dew Point 36 °F    
Average Humidity 85    
Maximum Humidity 96    
Minimum Humidity 63    
Precipitation  
Precipitation 0.75 in - - ()
Sea Level Pressure  
Sea Level Pressure 29.54 in    
Wind  
Wind Speed 3 mph (North)    
Max Wind Speed 10 mph    
Max Gust Speed 17 mph    
Visibility 8 miles    
Events Rain    
Averages and records for this station are not official NWS values.
T = Trace of Precipitation, MM = Missing Value Source: NWS Daily Summary

Daily Weather History Graph

Daily Weather History Graph

Search for Another Location

Airport or City:

Astronomy

Nov. 07, 2014 Rise Set
Actual Time 8:36 AM AKST 4:45 PM AKST
Civil Twilight 7:49 AM AKST 5:32 PM AKST
Nautical Twilight 6:58 AM AKST 6:22 PM AKST
Astronomical Twilight 6:10 AM AKST 7:11 PM AKST
Moon 5:38 PM AKST (11/7) 9:27 AM AKST (11/7)
Length of Visible Light 9h 42m
Length of Day
8h 08m
Full, 99% of the Moon is Illuminated
Nov 7
Full
Nov 14
Last Quarter
Nov 22
New
Nov 29
First Quarter
Dec 6
Full

Hourly Weather History & Observations

Time (AKST) Temp. Windchill Dew Point Humidity Pressure Visibility Wind Dir Wind Speed Gust Speed Precip Events Conditions
12:53 AM 44.1 °F 40.8 °F 32.0 °F 63% 29.53 in 10.0 mi NW 5.8 mph - N/A   Overcast
1:53 AM 43.0 °F - 34.0 °F 71% 29.53 in 10.0 mi Calm Calm - 0.00 in Rain Light Rain
2:53 AM 39.9 °F 36.7 °F 35.1 °F 83% 29.51 in 10.0 mi North 4.6 mph - 0.00 in   Overcast
3:53 AM 39.9 °F - 36.0 °F 86% 29.50 in 10.0 mi Calm Calm - 0.00 in Rain Light Rain
4:53 AM 39.9 °F - 36.0 °F 86% 29.51 in 10.0 mi Calm Calm - 0.01 in Rain Light Rain
5:53 AM 43.0 °F 37.7 °F 35.1 °F 74% 29.50 in 10.0 mi NNW 9.2 mph - 0.00 in   Overcast
6:53 AM 43.0 °F 37.7 °F 34.0 °F 71% 29.51 in 10.0 mi NNW 9.2 mph - N/A   Overcast
7:53 AM 43.0 °F 40.3 °F 34.0 °F 71% 29.50 in 10.0 mi NNW 4.6 mph - 0.00 in Rain Light Rain
8:53 AM 42.1 °F 37.1 °F 34.0 °F 73% 29.52 in 10.0 mi NNE 8.1 mph - 0.00 in Rain Light Rain
9:32 AM 41.0 °F - 36.0 °F 82% 29.52 in 10.0 mi Calm Calm - 0.02 in Rain Light Rain
9:41 AM 41.0 °F - 35.1 °F 79% 29.52 in 10.0 mi Calm Calm - 0.02 in Rain Light Rain
9:53 AM 41.0 °F 39.0 °F 36.0 °F 82% 29.52 in 10.0 mi North 3.5 mph - 0.03 in Rain Light Rain
10:53 AM 42.1 °F 36.1 °F 35.1 °F 76% 29.52 in 10.0 mi NNW 10.4 mph 17.3 mph 0.00 in Rain Light Rain
11:53 AM 43.0 °F - 35.1 °F 74% 29.56 in 10.0 mi Calm Calm - 0.01 in   Overcast
12:53 PM 42.1 °F - 37.0 °F 82% 29.56 in 10.0 mi Calm Calm - N/A   Overcast
1:53 PM 42.1 °F 40.2 °F 39.0 °F 89% 29.57 in 10.0 mi NE 3.5 mph - 0.01 in Rain Light Rain
2:53 PM 41.0 °F 37.1 °F 37.9 °F 89% 29.57 in 4.0 mi NNW 5.8 mph - 0.06 in Rain Rain
3:53 PM 41.0 °F 36.4 °F 37.0 °F 86% 29.55 in 10.0 mi North 6.9 mph - 0.05 in Rain Light Rain
4:53 PM 39.9 °F 35.8 °F 37.0 °F 89% 29.54 in 10.0 mi North 5.8 mph - 0.04 in Rain Light Rain
5:53 PM 39.9 °F 35.8 °F 37.0 °F 89% 29.54 in 8.0 mi NNW 5.8 mph - 0.07 in Rain Light Rain
6:53 PM 39.9 °F 35.8 °F 37.0 °F 89% 29.54 in 9.0 mi ESE 5.8 mph - 0.05 in Rain Rain
7:06 PM 39.9 °F 37.8 °F 37.0 °F 89% 29.54 in 6.0 mi Variable 3.5 mph - 0.05 in Rain Rain
7:29 PM 39.9 °F 37.8 °F 37.9 °F 93% 29.54 in 7.0 mi North 3.5 mph - 0.09 in Rain Rain
7:53 PM 39.9 °F - 37.0 °F 89% 29.54 in 7.0 mi Calm Calm - 0.15 in Rain Rain
8:05 PM 39.9 °F - 37.0 °F 89% 29.54 in 8.0 mi Calm Calm - 0.02 in Rain Light Rain
8:21 PM 39.9 °F - 37.0 °F 89% 29.53 in 8.0 mi Calm Calm - 0.04 in Rain Light Rain
8:53 PM 39.0 °F - 37.0 °F 93% 29.53 in 7.0 mi Calm Calm - 0.07 in Rain Rain
9:53 PM 41.0 °F - 37.9 °F 89% 29.55 in 3.0 mi Calm Calm - 0.08 in Rain Rain
10:32 PM 39.9 °F - 37.9 °F 93% 29.55 in 7.0 mi Calm Calm - 0.05 in Rain Light Rain
10:51 PM 39.2 °F 37.0 °F 37.4 °F 93% 29.56 in 9.0 mi South 3.5 mph - 0.06 in Rain Light Rain
10:53 PM 39.9 °F - 37.9 °F 93% 29.56 in 7.0 mi Calm Calm - 0.06 in Rain Light Rain
11:01 PM 39.9 °F - 37.9 °F 93% 29.56 in 4.0 mi Calm Calm - 0.01 in Rain Light Rain
11:35 PM 39.0 °F 36.8 °F 37.9 °F 96% 29.56 in 5.0 mi North 3.5 mph - 0.05 in Rain Light Rain
11:42 PM 39.0 °F 36.8 °F 37.0 °F 93% 29.56 in 5.0 mi North 3.5 mph - 0.05 in Rain Light Rain
11:53 PM 39.0 °F - 37.9 °F 96% 29.57 in 5.0 mi Calm Calm - 0.06 in Rain Rain